Flight Track Log - Related Links

Times and Time Zones

All times are in EDT time to prevent confusion due to time zone crossing. See the N368CS flight status page for this flight to view local times or setup timezone preferences in your user account.

Time Position Orientation Groundspeed Altitude Reporting Facility
EDT Latitude Longitude Course Direction KTS MPH feet Rate Location/Type
Sun 05:08:17 PM 34.1814 -118.4856 73° East 181 208 25,000  Level Los Angeles Center
Sun 05:09:19 PM 34.1922 -118.4422 73° East 184 212 4,700 -8,226 Descending Los Angeles Center
Sun 05:10:21 PM 34.2503 -118.4458 357° North 205 236 8,000 3,145 Climbing Los Angeles Center
Sun 05:11:23 PM 34.3092 -118.4453 360° North 211 243 11,200 2,371 Climbing Los Angeles Center
Sun 05:12:25 PM 34.3706 -118.3997 31° Northeast 249 287 12,900 1,839 Climbing Los Angeles Center
Sun 05:13:27 PM 34.4442 -118.3472 30° Northeast 302 348 15,000 2,112 Climbing Los Angeles Center
Sun 05:14:30 PM 34.4867 -118.2536 61° Northeast 323 372 17,300 2,016 Climbing Los Angeles Center
Sun 05:15:32 PM 34.5206 -118.1381 70° East 331 381 19,200 1,694 Climbing Los Angeles Center
Sun 05:16:34 PM 34.5531 -118.0244 71° East 354 407 20,800 1,597 Climbing Los Angeles Center
Sun 05:17:36 PM 34.5867 -117.9072 71° East 368 423 22,500 1,742 Climbing Los Angeles Center
Sun 05:18:38 PM 34.6267 -117.7656 71° East 372 428 24,400 1,210 Climbing Los Angeles Center
Sun 05:19:40 PM 34.6619 -117.6436 71° East 381 438 25,000 290 Climbing Los Angeles Center
Sun 05:20:42 PM 34.7003 -117.5106 71° East 416 479 25,000  Level Los Angeles Center
Sun 05:21:44 PM 34.7386 -117.3725 71° East 434 499 25,000  Level Los Angeles Center
Sun 05:22:46 PM 34.7789 -117.2322 71° East 445 512 25,000  Level Los Angeles Center
Sun 05:23:48 PM 34.8275 -117.0622 71° East 448 516 25,000  Level Los Angeles Center
Sun 05:24:50 PM 34.8667 -116.9197 71° East 447 514 25,000  Level Los Angeles Center
Sun 05:25:53 PM 34.9067 -116.7761 71° East 449 517 25,000  Level Los Angeles Center
Sun 05:26:55 PM 34.9467 -116.6336 71° East 446 513 25,000  Level Los Angeles Center
Sun 05:27:57 PM 35.0150 -116.5097 56° Northeast 450 518 25,000 -532 Level Los Angeles Center
Sun 05:28:59 PM 35.1161 -116.3847 45° Northeast 436 502 23,900 -484 Descending Los Angeles Center
Sun 05:30:01 PM 35.1986 -116.2819 45° Northeast 431 496 24,000 -48 Climbing Los Angeles Center
Sun 05:31:03 PM 35.2794 -116.1783 46° Northeast 425 489 23,800 -1,210 Descending Los Angeles Center
Sun 05:32:05 PM 35.3625 -116.0717 46° Northeast 432 497 21,500 -2,177 Descending Los Angeles Center
Sun 05:33:07 PM 35.4461 -115.9689 45° Northeast 430 495 19,300 -2,160 Descending Los Angeles Center
Sun 05:33:45 PM 35.5128 -115.8908 44° Northeast 415 478 17,900 -1,839 Descending Los Angeles Center
Sun 05:34:09 PM 35.5261 -115.8669 56° Northeast 403 464 17,400 -2,160 Descending Los Angeles Center
Sun 05:34:10 PM 35.5419 -115.8550 32° Northeast 397 457 17,000 -2,516 Descending Los Angeles Center
Sun 05:35:11 PM 35.6131 -115.7639 46° Northeast 376 433 14,800 -1,914 Descending Los Angeles Center
Sun 05:36:06 PM 35.6689 -115.6931 46° Northeast 335 386 13,300 -1,619 Descending Los Angeles Center
Sun 05:36:14 PM 35.6733 -115.6806 66° East 322 371 13,100 -300 Descending Los Angeles Center
Sun 05:37:06 PM 35.7244 -115.6197 44° Northeast 302 348 13,000 -97 Descending Los Angeles Center
Sun 05:37:16 PM 35.7314 -115.6072 56° Northeast 293 337 13,000  Level Los Angeles Center
Sun 05:38:07 PM 35.7778 -115.5761 29° Northeast 239 275 13,000  Level Los Angeles Center
Sun 05:38:18 PM 35.7936 -115.5733 North 240 276 13,000  Level Los Angeles Center
Sun 05:39:08 PM 35.8519 -115.5706 North 247 284 13,000  Level Los Angeles Center
Sun 05:39:20 PM 35.8631 -115.5692 North 251 289 13,000  Level Los Angeles Center
Sun 05:40:03 PM 35.9078 -115.5686 North 229 264 13,000  Level Los Angeles Center
Sun 05:40:22 PM 35.9292 -115.5700 357° North 239 275 13,000 -689 Level Los Angeles Center
Sun 05:41:04 PM 35.9806 -115.5767 354° North 238 274 12,300 -968 Descending Los Angeles Center
Sun 05:41:24 PM 36.0011 -115.5761 North 240 276 12,000 -985 Descending Los Angeles Center
Sun 05:42:11 PM 36.0503 -115.5489 24° Northeast 240 276 11,200 -968 Descending Los Angeles Center
Sun 05:42:26 PM 36.0633 -115.5397 30° Northeast 245 282 11,000 -218 Descending Los Angeles Center
Sun 05:43:06 PM 36.0719 -115.4886 78° East 238 274 11,000  Level Los Angeles Center
Sun 05:43:28 PM 36.0617 -115.4564 112° Southeast 247 284 11,000  Level Los Angeles Center
Sun 05:44:06 PM 36.0436 -115.4075 115° Southeast 257 296 11,000  Level Los Angeles Center
Sun 05:44:30 PM 36.0331 -115.3767 113° Southeast 256 295 11,000 -627 Level Los Angeles Center
Sun 05:45:13 PM 36.0267 -115.3094 97° East 256 295 10,300 -968 Descending Los Angeles Center
Sun 05:45:32 PM 36.0250 -115.2839 95° East 256 295 10,000 -982 Descending Los Angeles Center
Sun 05:46:08 PM 36.0208 -115.2317 96° East 251 289 9,400 -952 Descending Los Angeles Center
Sun 05:46:35 PM 36.0192 -115.2000 94° East 249 287 9,000 -787 Descending Los Angeles Center
Sun 05:47:09 PM 36.0142 -115.1514 97° East 240 276 8,600 -677 Descending Los Angeles Center
Sun 05:47:37 PM 36.0128 -115.1142 93° East 237 273 8,300 -537 Descending Los Angeles Center
Sun 05:48:16 PM 36.0094 -115.0600 94° East 239 275 8,000 -290 Descending Los Angeles Center
Sun 05:48:39 PM 36.0072 -115.0283 95° East 236 272 8,000 -358 Level Los Angeles Center
Sun 05:49:23 PM 36.0189 -114.9850 72° East 215 247 7,600 -774 Descending Los Angeles Center
Sun 05:49:41 PM 36.0342 -114.9817 10° North 211 243 7,200 -1,309 Descending Los Angeles Center
Sun 05:50:18 PM 36.0694 -114.9789 North 214 246 6,400 -1,258 Descending Los Angeles Center
Sun 05:50:43 PM 36.0958 -114.9781 North 208 239 5,900 -1,000 Descending Los Angeles Center
Sun 05:51:12 PM 36.1189 -114.9783 359° North 188 216 5,500 -677 Descending Los Angeles Center
Sun 05:51:45 PM 36.1356 -114.9967 318° Northwest 182 209 5,200 -269 Descending Los Angeles Center
Sun 05:52:19 PM 36.1361 -115.0367 271° West 193 222 5,200 -387 Level Los Angeles Center
Sun 05:52:47 PM 36.1367 -115.0642 271° West 184 212 4,800 -1,091 Descending Los Angeles Center
Sun 05:53:14 PM 36.1367 -115.0897 270° West 165 190 4,200 -1,065 Descending Los Angeles Center
Sun 05:53:49 PM 36.1383 -115.1169 274° West 153 176 3,700 -885 Descending Los Angeles Center
Sun 05:54:15 PM 36.1297 -115.1372 242° Southwest 138 159 3,300 -1,065 Descending Los Angeles Center
Sun 05:54:51 PM 36.1100 -115.1489 206° Southwest 141 162 2,600 -735 Descending Los Angeles Center
Sun 05:55:53 PM 36.0858 -115.1914 235° Southwest 188 216 2,100 -484 Descending Los Angeles Center
Sun 05:57:00 PM 36.0801 -115.1523 100° East  Level Estimated

Login

Don't have an account? Register now (free) for customized features, flight alerts, and more!